User: anonymous
Location: eljas
(40.1958°N, 6.8661°W)
Time: 12:13:23
(UTC+02:00)
Language:

Okean O Rocket - Orbit

View from above orbital plane
View from above orbital plane
View from above satellite
View from above satellite

Ground track
Ground track

The orbit data is extracted from the following two-line orbital elements,

1 25861U 99039B   14242.98940674  .00000265  00000-0  44049-4 0  7145
2 25861 097.9571 200.9593 0017139 132.1508 269.8504 14.77750778814911
Epoch (UTC): 30 August 2014 23:44:44
Eccentricity: 0.0017139
inclination: 97.9571°
perigee height: 624 km
apogee height: 648 km
right ascension of ascending node: 200.9593°
argument of perigee: 132.1508°
revolutions per day: 14.77750778
mean anomaly at epoch: 269.8504°
orbit number at epoch: 81491

The dashed part of the orbit path shows where the satellite is in the earth's shadow,  

DLR